Weather History for Sidney, NE

Change the Weather History Date:

Friday, May 10, 2013

  Actual Average Record
Temperature  
Mean Temperature 56 °F 56 °F  
Max Temperature 72 °F 70 °F 88 °F (2012)
Min Temperature 39 °F 42 °F 24 °F (2008)
Degree Days  
Heating Degree Days 9 10  
Month to date heating degree days 191 109  
Since 1 July heating degree days 6541 6021  
Cooling Degree Days 0 1  
Month to date cooling degree days 0 1  
Year to date cooling degree days 0 2  
Growing Degree Days 6 (Base 50)    
Moisture  
Dew Point 38 °F    
Average Humidity 61    
Maximum Humidity 96    
Minimum Humidity 26    
Precipitation  
Precipitation T in 0.10 in 1.40 in (1971)
Month to date precipitation 0.20 1.00  
Year to date precipitation 2.89 4.67  
Sea Level Pressure  
Sea Level Pressure 30.13 in    
Wind  
Wind Speed 6 mph (North)    
Max Wind Speed 31 mph    
Max Gust Speed 41 mph    
Visibility 10 miles    
Events Rain    
T = Trace of Precipitation, MM = Missing Value Source: NWS Daily Summary

Daily Weather History Graph

Daily Weather History Graph

Search for Another Location

Airport:

Trip Planner

Search our weather history database for the weather conditions in past years. The results will help you decide how hot, cold, wet, or windy it might be!

Date:

Astronomy

May. 10, 2013 Rise Set
Actual Time 5:38 AM MDT 7:58 PM MDT
Civil Twilight 5:07 AM MDT 8:29 PM MDT
Nautical Twilight 4:29 AM MDT 9:07 PM MDT
Astronomical Twilight 3:47 AM MDT 9:50 PM MDT
Moon 6:04 AM MDT (5/10) 8:50 PM MDT (5/10)
Length of Visible Light 15h 21m
Length of Day
14h 19m
New Moon, 1% of the Moon is Illuminated
May 10
New Moon
May 17
First Quarter
May 24
Full
May 31
Last Quarter
Jun 8
New

Hourly Weather History & Observations

Time (MDT) Temp. Windchill Dew Point Humidity Pressure Visibility Wind Dir Wind Speed Gust Speed Precip Events Conditions
12:53 AM 46.9 °F - 41.0 °F 80% 30.13 in 10.0 mi North 4.6 mph - N/A   Partly Cloudy
2:53 AM 41.0 °F - 37.9 °F 89% 30.13 in 10.0 mi Calm Calm - N/A   Overcast
3:53 AM 44.1 °F 40.8 °F 41.0 °F 89% 30.12 in 9.0 mi NNW 5.8 mph - N/A   Scattered Clouds
4:53 AM 42.1 °F 39.2 °F 41.0 °F 96% 30.12 in 5.0 mi NW 4.6 mph - N/A   Overcast
7:53 AM 51.1 °F - 44.1 °F 77% 30.14 in 10.0 mi Calm Calm - N/A   Clear
8:53 AM 57.0 °F - 45.0 °F 64% 30.14 in 10.0 mi Variable 4.6 mph - N/A   Clear
9:53 AM 62.1 °F - 43.0 °F 50% 30.15 in 10.0 mi Variable 5.8 mph - N/A   Clear
11:53 AM 64.9 °F - 39.0 °F 39% 30.13 in 10.0 mi NNE 4.6 mph - N/A   Mostly Cloudy
12:53 PM 69.1 °F - 36.0 °F 30% 30.11 in 10.0 mi Variable 4.6 mph 17.3 mph N/A   Scattered Clouds
1:53 PM 68.0 °F - 34.0 °F 28% 30.10 in 10.0 mi North 12.7 mph 18.4 mph N/A   Mostly Cloudy
2:53 PM 70.0 °F - 33.1 °F 26% 30.09 in 10.0 mi NNE 8.1 mph - N/A   Partly Cloudy
3:50 PM 64.4 °F - 35.6 °F 34% 30.17 in 9.0 mi WSW 8.1 mph 34.5 mph 0.00 in Rain Light Rain
3:53 PM 64.9 °F - 35.1 °F 33% 30.11 in 10.0 mi West 10.4 mph 25.3 mph 0.00 in Rain Light Rain
4:53 PM 68.0 °F - 34.0 °F 28% 30.10 in 10.0 mi Variable 3.5 mph - 0.00 in   Scattered Clouds
5:53 PM 69.1 °F - 35.1 °F 29% 30.09 in 10.0 mi WNW 5.8 mph - N/A   Clear
6:53 PM 68.0 °F - 35.1 °F 30% 30.08 in 10.0 mi NNE 4.6 mph - N/A   Overcast
7:53 PM 63.0 °F - 36.0 °F 37% 30.11 in 10.0 mi NNE 4.6 mph - N/A   Scattered Clouds
8:53 PM 57.0 °F - 35.1 °F 44% 30.14 in 10.0 mi NNE 8.1 mph - N/A   Clear
9:53 PM 55.9 °F - 36.0 °F 47% 30.18 in 10.0 mi NNE 16.1 mph - N/A   Clear
10:53 PM 52.0 °F - 39.0 °F 61% 30.21 in 10.0 mi NNE 8.1 mph - N/A   Clear
11:53 PM 52.0 °F - 39.9 °F 63% 30.20 in 10.0 mi NE 10.4 mph - N/A   Scattered Clouds